NR0Q Weather Reports


time (UTC)temp
C
wind
direction
speed
KPH
gust
KPH
rain 1hr
cm
rain 24hr
cm
rain mn
cm
humidity
%
barometer
mb
20260510180001 16 116 0.0 3.2 0.05 0.13 0.00 70 1020.7
20260510174501 16 114 3.2 3.2 0.05 0.13 0.00 72 1020.7
20260510173001 16 347 3.2 3.2 0.03 0.10 0.00 72 1020.7
20260510171501 16 32 0.0 0.0 0.00 0.08 0.00 68 1021.7
20260510170001 16 359 0.0 6.4 0.00 0.08 0.00 64 1020.7
20260510164501 16 5 3.2 6.4 0.00 0.08 0.00 65 1020.7
20260510163001 16 348 17.7 17.7 0.00 0.08 0.00 66
20260510161501 16 348 9.7 12.9 0.00 0.08 0.00 68
20260510160002 16 283 6.4 17.7 0.00 0.08 0.00 66 1018.6
20260510154501 16 306 0.0 9.7 0.00 0.08 0.00 67 1018.6
20260510153001 16 333 9.7 24.1 0.00 0.08 0.00 68 1018.6
20260510151501 17 0 0.0 6.4 0.00 0.08 0.00 70 1018.6
20260510150001 16 332 6.4 6.4 0.00 0.08 0.00 73 1018.6
20260510143001 16 81 6.4 3.2 0.03 0.08 0.00 77 1017.6
20260510141501 16 61 3.2 12.9 0.08 0.08 0.00 78 1017.6
20260510140001 16 335 3.2 6.4 0.08 0.08 0.00 81 1017.6
20260510134501 16 34 3.2 6.4 0.05 0.05 0.00 83 1017.6
20260510133001 16 140 3.2 6.4 0.03 0.03 0.00 82 1018.6
20260510131501 16 55 3.2 6.4 0.00 0.00 0.00 82 1018.6
20260510130001 15 124 3.2 3.2 0.00 0.00 0.00 86 1017.6
20260510124501 15 343 3.2 3.2 0.00 0.00 0.00 89 1017.6
20260510123001 15 253 0.0 3.2 0.00 0.00 0.00 89 1016.6
20260510121501 15 194 3.2 6.4 0.00 0.00 0.00 89 1015.6
20260510120001 14 136 3.2 6.4 0.00 0.00 0.00 89 1015.6
20260510114501 14 119 3.2 6.4 0.00 0.00 0.00 89 1014.6
20260510113001 14 142 3.2 3.2 0.00 0.00 0.00 88 1014.6
20260510111501 15 25 3.2 6.4 0.00 0.00 0.00 86 1014.6
20260510110001 15 106 3.2 9.7 0.00 0.00 0.00 85 1014.6
20260510104501 15 269 3.2 6.4 0.00 0.00 0.00 83 1013.6
20260510103001 16 311 0.0 3.2 0.00 0.00 0.00 81 1013.6
20260510101501 16 128 9.7 9.7 0.00 0.00 0.00 78 1013.6
20260510100001 15 167 3.2 6.4 0.00 0.00 0.00 80 1013.6
20260510094502 15 88 3.2 6.4 0.00 0.00 0.00 84 1013.6
20260510093002 15 348 3.2 3.2 0.00 0.00 0.00 84 1013.6
20260510091501 15 214 0.0 3.2 0.00 0.00 0.00 83 1013.6
20260510090001 16 348 0.0 0.0 0.00 0.00 0.00 81 1013.6
20260510084501 16 54 0.0 0.0 0.00 0.00 0.00 79 1012.5
20260510083001 16 124 0.0 0.0 0.00 0.00 0.00 76 1012.5
20260510081501 17 293 0.0 3.2 0.00 0.00 0.00 73 1011.5
20260510080001 18 135 3.2 0.0 0.00 0.00 0.00 72 1012.5
20260510074501 19 29 0.0 0.0 0.00 0.00 0.00 66 1011.5
20260510073001 20 25 0.0 3.2 0.00 0.00 0.00 63 1012.5
20260510071501 20 252 3.2 3.2 0.00 0.00 0.00 61 1011.5
20260510070001 18 139 17.7 27.4 0.00 0.00 0.00 65 1011.5
20260510064501 19 128 6.4 6.4 0.00 0.00 0.00 65 1012.5
20260510063001 19 285 6.4 9.7 0.00 0.00 0.00 63 1011.5
20260510061501 18 146 20.9 20.9 0.00 0.00 0.00 71 1011.5
20260510060001 17 118 3.2 3.2 0.00 0.00 0.00 74 1013.6
20260510054502 18 142 0.0 0.0 0.00 0.00 0.00 73 1013.6
20260510053001 18 315 3.2 3.2 0.00 0.00 0.00 73 1014.6
20260510051501 18 255 0.0 0.0 0.00 0.00 0.00 71 1013.6
20260510050001 18 315 0.0 0.0 0.00 0.00 0.00 72 1014.6
20260510044501 18 37 0.0 0.0 0.00 0.00 0.00 73 1014.6
20260510043001 17 242 0.0 0.0 0.00 0.00 0.00 75 1014.6
20260510041502 17 297 0.0 0.0 0.00 0.00 0.00 77 1013.6
20260510040001 17 129 0.0 0.0 0.00 0.00 0.00 77 1012.5
20260510034501 17 178 0.0 0.0 0.00 0.00 0.00 75 1012.5
20260510033001 17 315 0.0 0.0 0.00 0.00 0.00 74 1012.5
20260510031501 17 141 0.0 0.0 0.00 0.00 0.00 73 1012.5
20260510030001 18 129 0.0 0.0 0.00 0.00 0.00 71 1012.5
20260510024501 18 95 3.2 3.2 0.00 0.00 0.00 71 1012.5
20260510023001 18 315 0.0 0.0 0.00 0.00 0.00 69 1011.5
20260510021501 19 129 0.0 0.0 0.00 0.00 0.00 66 1011.5
20260510014501 21 39 0.0 0.0 0.00 0.00 0.00 54 1010.5
20260510013001 22 84 3.2 0.0 0.00 0.00 0.00 52 1009.5
20260510011501 23 230 0.0 0.0 0.00 0.00 0.00 45 1009.5
20260510010001 24 333 3.2 0.0 0.00 0.00 0.00 39 1009.5
20260510004501 25 240 0.0 0.0 0.00 0.00 0.00 36 1009.5
20260510003003 26 151 3.2 6.4 0.00 0.00 0.00 36 1009.5
20260510001501 26 18 6.4 6.4 0.00 0.03 0.00 34 1009.5
20260510000001 26 164 6.4 12.9 0.00 0.03 0.00 32 1009.5
20260509234501 26 91 0.0 9.7 0.00 0.08 0.00 33 1009.5
20260509233001 27 168 6.4 12.9 0.00 0.25 0.00 32 1009.5
20260509231501 27 139 6.4 20.9 0.00 0.46 0.00 30 1009.5
20260509230001 27 102 3.2 6.4 0.00 0.46 0.00 27 1009.5
20260509224501 27 126 12.9 12.9 0.00 0.58 0.00 29 1009.5
20260509223001 27 124 12.9 12.9 0.00 1.14 0.00 27 1009.5
20260509221501 27 158 9.7 12.9 0.00 1.68 0.00 29 1009.5
20260509220001 27 149 0.0 6.4 0.00 1.68 0.00 28 1009.5
20260509214502 27 116 12.9 17.7 0.00 1.68 0.00 28 1009.5
20260509213001 27 134 3.2 12.9 0.00 1.68 0.00 28 1010.5
20260509211501 27 237 3.2 3.2 0.00 1.68 0.00 27 1010.5
20260509210001 27 79 3.2 9.7 0.00 1.68 0.00 28 1010.5
20260509204502 27 201 6.4 6.4 0.00 1.68 0.00 33 1010.5
20260509203001 27 175 6.4 9.7 0.00 1.68 0.00 34 1010.5
20260509201501 27 206 3.2 6.4 0.00 1.68 0.00 30 1010.5
20260509200001 27 201 3.2 3.2 0.00 1.68 0.00 31 1011.5
20260509194501 27 112 3.2 3.2 0.00 1.68 0.00 34 1011.5
20260509191501 27 197 6.4 9.7 0.00 1.68 0.00 37 1011.5
20260509190001 27 222 0.0 3.2 0.00 1.68 0.00 37 1011.5
20260509184501 27 180 0.0 3.2 0.00 1.68 0.00 35 1011.5
20260509183001 26 126 6.4 9.7 0.00 1.68 0.00 40 1011.5
20260509181501 26 109 6.4 9.7 0.00 1.68 0.00 42 1011.5